[[{"header":{"parameterUnit":"m.s-1","parameterCategory":1,"la1":30.2991,"la2":30.254,"lo1":-89.0895,"lo2":-89.0444,"dy":0.0017,"dx":0.0017,"nx":28,"ny":28,"refTime":"2025-07-16T09:00:00:Z","depth":0,"parameterNumber":2,"parameterNumberName":"U-component_of_WINDS"},"data":[0,0,0,0,0,0,0,0,0,0,0,0,0,0,0,0,0,0,0,0,0,0,0,0,0,0,0,0,0,0,0,0,0,0,0,0,0,0,0,0,0,0,0,0,0,0,0,0,0,0,0,0,0,0,0,0,0,0,-3.3509,-3.3508,0,-3.3398,-3.3397,-3.3395,-3.3302,-3.3301,-3.33,-3.3299,-3.3186,-3.3184,-3.3182,0,0,0,0,0,0,0,0,0,0,0,0,0,-3.3635,-3.3634,-3.3509,-3.3508,-3.3506,-3.3398,-3.3397,-3.3395,-3.3302,-3.3301,-3.33,-3.3299,-3.3187,-3.3184,-3.3182,0,0,0,0,0,0,0,0,0,0,0,0,0,-3.3558,-3.3633,-3.3509,-3.3447,-3.344,-3.3399,-3.3397,-3.3395,-3.3303,-3.3301,-3.33,-3.3298,-3.3187,-3.3184,-3.3181,-3.3193,0,0,-3.3172,-3.317,0,0,0,0,0,0,0,0,-3.3563,-3.3554,-3.3457,-3.3451,-3.3443,-3.3362,-3.34,-3.3327,-3.3303,-3.3355,-3.3299,-3.3297,-3.3246,-3.3238,-3.322,-3.3187,-3.3182,-3.3172,-3.317,-3.3168,-3.3167,0,0,0,0,0,0,0,-3.3568,-3.3558,-3.3465,-3.3456,-3.3448,-3.3423,-3.341,-3.3385,-3.331,-3.335,-3.3343,-3.3331,-3.3242,-3.3224,-3.3217,-3.3181,-3.3172,-3.3169,-3.3167,-3.3166,-3.3143,-3.3145,0,0,0,0,0,0,-3.3584,-3.3563,-3.3468,-3.3462,-3.3501,-3.3422,-3.3408,-3.339,-3.331,-3.3297,-3.3333,-3.3327,-3.323,-3.3221,-3.3213,-3.3216,-3.3168,-3.3165,-3.3164,-3.3142,-3.3144,-3.3145,0,0,0,0,0,0,-3.3587,-3.3576,-3.3473,-3.351,-3.3495,-3.3421,-3.3402,-3.3389,-3.337,-3.3297,-3.3283,-3.3328,-3.3228,-3.3217,-3.3196,-3.3211,-3.3164,-3.3161,-3.3141,-3.3143,-3.3144,-3.3225,0,0,0,0,0,0,-3.3591,-3.3578,-3.3583,-3.3511,-3.3494,-3.3461,-3.3403,-3.3388,-3.3365,-3.3357,-3.3289,-3.3276,-3.3226,-3.3202,-3.3193,-3.3205,-3.3159,-3.3139,-3.3142,-3.3144,-3.3221,-3.3229,-3.3237,0,0,0,0,0,-3.3596,-3.3611,-3.3584,-3.3573,-3.3499,-3.3462,-3.3451,-3.3393,-3.3367,-3.337,-3.3321,-3.3279,-3.3211,-3.32,-3.319,-3.3202,-3.3138,-3.3141,-3.3144,-3.3217,-3.3228,-3.3237,0,0,0,0,0,0,-3.3688,-3.3601,-3.3569,-3.3563,-3.352,-3.3446,-3.3448,-3.3407,-3.3372,-3.3365,-3.3294,-3.328,-3.3266,-3.3232,-3.3222,-3.3204,-3.3168,-3.3169,-3.3227,-3.3237,-3.3245,-3.3253,-3.3156,0,0,0,0,0,-3.3707,-3.3686,-3.3611,-3.3612,-3.3592,-3.3524,-3.3506,-3.3464,-3.3417,-3.3399,-3.3349,-3.3305,-3.3272,-3.3253,-3.322,-3.3215,-3.3196,-3.3218,-3.3226,-3.3233,-3.3234,-3.3223,-3.323,-3.3154,-3.3154,-3.3154,0,0,-3.3748,-3.3697,-3.3688,-3.3629,-3.3591,-3.3567,-3.351,-3.3489,-3.347,-3.3395,-3.3372,-3.3334,-3.3279,-3.3265,-3.3256,-3.3236,-3.325,-3.3236,-3.3242,-3.324,-3.3226,-3.3234,-3.324,-3.3156,-3.3156,-3.3156,0,0,-3.3808,-3.377,-3.3764,-3.3726,-3.3669,-3.3622,-3.3621,-3.3552,-3.3523,-3.3498,-3.3439,-3.3415,-3.3363,-3.3324,-3.3298,-3.3338,-3.3295,-3.3329,-3.3371,-3.3361,-3.3367,-3.3372,-3.3381,-3.3386,-3.3331,-3.3331,-3.3331,0,-3.3866,-3.3829,-3.3766,-3.3747,-3.372,-3.365,-3.3641,-3.3608,-3.3543,-3.3525,-3.3503,-3.3431,-3.339,-3.3363,-3.3372,-3.3355,-3.3347,-3.3336,-3.3371,-3.3375,-3.3379,-3.3387,-3.3392,-3.3335,-3.3335,-3.3334,-3.3334,0,-3.39,-3.3875,-3.3877,-3.3813,-3.3787,-3.3774,-3.3706,-3.3687,-3.3646,-3.3601,-3.3574,-3.3521,-3.3473,-3.3463,-3.3425,-3.3429,-3.3417,-3.3385,-3.3346,-3.3391,-3.3398,-3.3401,-3.3341,-3.334,-3.3338,-3.3337,0,0,-3.4018,-3.3916,-3.3918,-3.3885,-3.3815,-3.3793,-3.3774,-3.3726,-3.3709,-3.3665,-3.3645,-3.3599,-3.3566,-3.3536,-3.3492,-3.3484,-3.3512,-3.345,-3.3448,-3.3461,-3.3507,-3.3531,-3.3536,-3.3483,-3.3484,-3.3484,-3.3511,0,-3.4064,-3.4027,-3.3967,-3.3949,-3.3922,-3.3852,-3.3835,-3.3788,-3.3745,-3.3714,-3.3666,-3.3633,-3.3594,-3.3574,-3.3563,-3.3511,-3.352,-3.3509,-3.3461,-3.346,-3.3475,-3.354,-3.3566,-3.3594,-3.3513,-3.3514,-3.3514,0,-3.4114,-3.4072,-3.405,-3.3976,-3.3962,-3.3949,-3.3896,-3.3869,-3.3813,-3.3781,-3.3745,-3.3695,-3.3668,-3.3634,-3.3593,-3.3587,-3.3563,-3.3534,-3.3533,-3.3525,-3.3489,-3.3531,-3.3602,-3.3606,-3.3518,-3.3518,-3.3518,0,-3.4197,-3.4135,-3.4112,-3.4088,-3.4002,-3.3992,-3.3956,-3.3898,-3.3871,-3.3825,-3.3806,-3.3759,-3.3732,-3.3694,-3.3632,-3.3614,-3.3596,-3.3558,-3.3566,-3.3567,-3.3565,-3.3565,-3.3631,-3.3554,-3.3554,-3.3554,-3.3554,0,-3.4254,-3.4242,-3.4148,-3.4134,-3.4117,-3.4047,-3.4032,-3.3989,-3.3937,-3.3911,-3.3848,-3.3825,-3.3745,-3.3711,-3.3662,-3.3632,-3.3622,-3.3593,-3.358,-3.3597,-3.3601,-3.358,-3.3575,-3.3555,-3.3555,-3.3555,-3.3554,0,-3.4343,-3.428,-3.425,-3.417,-3.4149,-3.414,-3.407,-3.4052,-3.4003,-3.3971,-3.3959,-3.3882,-3.3839,-3.3772,-3.371,-3.3676,-3.3654,-3.3634,-3.3673,-3.3664,-3.3675,-3.3673,-3.3727,-3.3729,-3.3655,-3.3655,-3.3656,0,-3.4383,-3.4371,-3.4289,-3.4267,-3.4232,-3.4198,-3.4169,-3.4099,-3.4071,-3.4002,-3.3992,-3.3943,-3.39,-3.3833,-3.377,-3.372,-3.3697,-3.3718,-3.3689,-3.3705,-3.3692,-3.3693,-3.3689,-3.3725,-3.3727,-3.3728,-3.3728,0,-3.4457,-3.4425,-3.4387,-3.4336,-3.4303,-3.426,-3.4213,-3.4198,-3.4116,-3.4088,-3.4042,-3.4009,-3.3942,-3.3893,-3.3833,-3.3793,-3.3746,-3.3738,-3.3736,-3.3754,-3.3775,-3.3759,-3.3689,-3.3737,-3.3736,-3.3736,-3.3735,-3.3735,-3.452,-3.4505,-3.4443,-3.4401,-3.4358,-3.4314,-3.4292,-3.4239,-3.42,-3.414,-3.41,-3.4056,-3.3993,-3.3908,-3.387,-3.3832,-3.3812,-3.3811,-3.381,-3.381,-3.3815,-3.3783,-3.3821,-3.3821,-3.382,-3.382,-3.382,0,-3.4588,-3.4544,-3.4506,-3.4441,-3.4407,-3.4365,-3.431,-3.4283,-3.4245,-3.4191,-3.4149,-3.4093,-3.4044,-3.3976,-3.3921,-3.3903,-3.3879,-3.389,-3.389,-3.388,-3.3838,-3.3843,-3.391,-3.391,-3.391,-3.391,-3.391,-3.391,-3.4619,-3.459,-3.455,-3.4497,-3.4452,-3.4408,-3.4379,-3.4337,-3.4294,-3.4235,-3.4193,-3.4149,-3.4088,-3.4027,-3.3978,-3.3959,-3.394,-3.3957,-3.3931,-3.3892,-3.3884,-3.3876,-3.388,-3.3954,-3.3954,-3.3976,-3.3976,-3.3976]},{"header":{"parameterUnit":"m.s-1","parameterCategory":1,"la1":30.2991,"la2":30.254,"lo1":-89.0895,"lo2":-89.0444,"dy":0.0017,"dx":0.0017,"nx":28,"ny":28,"refTime":"2025-07-16T09:00:00:Z","depth":0,"parameterNumber":3,"parameterNumberName":"V-component_of_WINDS"},"data":[0,0,0,0,0,0,0,0,0,0,0,0,0,0,0,0,0,0,0,0,0,0,0,0,0,0,0,0,0,0,0,0,0,0,0,0,0,0,0,0,0,0,0,0,0,0,0,0,0,0,0,0,0,0,0,0,0,0,2.2157,2.2161,0,2.2553,2.2557,2.2562,2.2592,2.2587,2.2583,2.2579,2.2988,2.3003,2.3017,0,0,0,0,0,0,0,0,0,0,0,0,0,2.1432,2.1445,2.2157,2.2162,2.2167,2.2552,2.2557,2.2563,2.2592,2.2587,2.2582,2.2577,2.2983,2.3001,2.3019,0,0,0,0,0,0,0,0,0,0,0,0,0,2.1779,2.1449,2.2156,2.2228,2.2238,2.2551,2.2558,2.2564,2.2594,2.2587,2.258,2.2574,2.2977,2.2999,2.3021,2.329,0,0,2.309,2.3099,0,0,0,0,0,0,0,0,2.1759,2.1806,2.2212,2.2223,2.2235,2.2516,2.2452,2.2808,2.2595,2.2459,2.2579,2.2571,2.2837,2.287,2.2959,2.3309,2.3327,2.3092,2.3105,2.3115,2.3121,0,0,0,0,0,0,0,2.1735,2.1789,2.2313,2.2218,2.2232,2.2242,2.2284,2.2519,2.268,2.247,2.2473,2.2519,2.2842,2.2937,2.2969,2.3333,2.3091,2.3111,2.3125,2.3134,2.3929,2.3936,0,0,0,0,0,0,2.1697,2.1768,2.2301,2.2325,2.1976,2.226,2.2307,2.2433,2.2677,2.2708,2.2525,2.2519,2.2902,2.2942,2.2983,2.3318,2.3115,2.3136,2.3149,2.3921,2.393,2.3938,0,0,0,0,0,0,2.1681,2.1744,2.2285,2.2048,2.2118,2.228,2.242,2.2444,2.2539,2.2718,2.2747,2.2592,2.2898,2.2952,2.3214,2.3332,2.3146,2.3166,2.3912,2.3924,2.3934,2.3986,0,0,0,0,0,0,2.166,2.1738,2.1841,2.205,2.213,2.2508,2.2427,2.2456,2.2577,2.2574,2.279,2.2819,2.2897,2.3181,2.3237,2.336,2.3184,2.3902,2.3917,2.3931,2.3975,2.3998,2.4018,0,0,0,0,0,2.1634,2.1839,2.1846,2.191,2.2261,2.2515,2.2561,2.2646,2.2587,2.2693,2.2808,2.2812,2.3309,2.3207,2.3271,2.3402,2.3895,2.3913,2.393,2.3965,2.3993,2.4017,0,0,0,0,0,0,2.164,2.1868,2.1878,2.2156,2.2316,2.2519,2.2655,2.2672,2.2853,2.2843,2.2941,2.299,2.325,2.3352,2.3234,2.3677,2.3596,2.3627,2.3601,2.363,2.3651,2.3622,2.3202,0,0,0,0,0,2.1674,2.1859,2.2049,2.2277,2.2356,2.2492,2.2605,2.2657,2.2827,2.2895,2.3029,2.3195,2.3389,2.3514,2.3702,2.3989,2.4038,2.411,2.4132,2.4149,2.4175,2.4338,2.4373,2.3995,2.3995,2.3995,0,0,2.1746,2.1893,2.2004,2.2282,2.2411,2.2603,2.2548,2.2753,2.2897,2.2926,2.3183,2.3287,2.3479,2.3756,2.3884,2.3849,2.429,2.4171,2.4183,2.4201,2.4359,2.4395,2.4426,2.4007,2.4005,2.4003,0,0,2.1975,2.2104,2.231,2.2441,2.2638,2.2727,2.2776,2.2978,2.3049,2.3308,2.3335,2.3508,2.3839,2.3975,2.4088,2.4371,2.4384,2.443,2.4544,2.4701,2.4731,2.4758,2.4862,2.4898,2.4455,2.4455,2.4455,0,2.204,2.2329,2.2413,2.2619,2.2742,2.2776,2.2987,2.311,2.3359,2.3444,2.3399,2.3818,2.3949,2.4259,2.4329,2.4418,2.448,2.4407,2.4719,2.4747,2.4774,2.4875,2.4913,2.446,2.4459,2.4459,2.4458,0,2.2401,2.2601,2.2744,2.2983,2.3122,2.3328,2.3446,2.3577,2.3616,2.3711,2.3976,2.4134,2.4357,2.4434,2.4474,2.4752,2.4724,2.4698,2.462,2.4813,2.4909,2.4948,2.4466,2.4464,2.4463,2.4462,0,0,2.2646,2.2931,2.2982,2.3093,2.3313,2.3471,2.368,2.3896,2.4008,2.4178,2.4358,2.4638,2.4617,2.4745,2.4801,2.4939,2.5158,2.4898,2.4904,2.4943,2.5477,2.5497,2.554,2.5166,2.5173,2.5179,2.5462,0,2.2903,2.3276,2.3359,2.3681,2.3869,2.3905,2.4088,2.4244,2.4338,2.4512,2.4616,2.4815,2.477,2.4848,2.4985,2.5102,2.5267,2.5082,2.5337,2.5345,2.5291,2.559,2.5611,2.587,2.55,2.5506,2.5511,0,2.3253,2.3432,2.3772,2.3971,2.4053,2.4216,2.4423,2.4588,2.4767,2.4826,2.4969,2.5012,2.5234,2.5142,2.545,2.5323,2.5432,2.5505,2.5517,2.5547,2.5442,2.5631,2.5954,2.5994,2.557,2.5566,2.5561,0,2.3402,2.3728,2.3975,2.4068,2.4305,2.4419,2.4523,2.4695,2.4821,2.5002,2.5086,2.529,2.5403,2.5561,2.5658,2.5582,2.5961,2.5876,2.6018,2.6016,2.6099,2.6093,2.6448,2.6164,2.6163,2.6162,2.6161,0,2.3682,2.389,2.4046,2.4198,2.4433,2.4527,2.4757,2.4861,2.5015,2.5189,2.5232,2.5395,2.5513,2.5693,2.5771,2.6016,2.6066,2.6122,2.6141,2.612,2.6114,2.6195,2.6181,2.6173,2.617,2.6168,2.6166,0,2.3889,2.4001,2.4274,2.4476,2.4532,2.4696,2.487,2.5021,2.5115,2.5336,2.5393,2.5543,2.5757,2.587,2.6137,2.619,2.6467,2.6474,2.6407,2.6415,2.6553,2.654,2.6976,2.7039,2.6709,2.6712,2.6714,0,2.4062,2.4223,2.4443,2.4563,2.4669,2.4862,2.4991,2.509,2.5223,2.544,2.5565,2.5781,2.596,2.6302,2.6436,2.6642,2.6656,2.6794,2.6687,2.6662,2.6662,2.6653,2.6671,2.6814,2.6817,2.682,2.6822,0,2.4358,2.4406,2.459,2.4795,2.4948,2.5114,2.5278,2.5373,2.55,2.5647,2.5867,2.6006,2.628,2.6496,2.6712,2.6821,2.6845,2.6854,2.6899,2.6881,2.6837,2.6866,2.6462,2.6844,2.6842,2.684,2.6839,2.6838,2.4556,2.4702,2.4881,2.5085,2.5219,2.5372,2.5524,2.5638,2.5823,2.6054,2.6101,2.6334,2.6512,2.6805,2.692,2.7105,2.7077,2.7141,2.7158,2.7173,2.7181,2.6804,2.7145,2.7144,2.7144,2.7143,2.7143,0,2.4858,2.4974,2.5161,2.539,2.5552,2.5557,2.574,2.5875,2.608,2.6243,2.6418,2.6672,2.6882,2.7032,2.7247,2.7366,2.7383,2.742,2.7414,2.7439,2.7192,2.7133,2.7403,2.7403,2.7403,2.7403,2.7403,2.7403,2.5034,2.5283,2.5352,2.5669,2.5784,2.6013,2.6118,2.626,2.639,2.6672,2.6847,2.6943,2.7102,2.7328,2.7522,2.7561,2.764,2.7677,2.7717,2.7484,2.7456,2.743,2.7376,2.7692,2.7692,2.7949,2.7952,2.7953]}]]